Location: Blanot
(47.1713°N, 4.2340°E)
Time: 00:36:27
(UTC+00:00)

Sich 1 Rocket - Pass Details

Date: 14 July 2020
Orbit: 615 x 653 km, 82.5° (Epoch: 03 August)

Event Time Altitude Azimuth Distance (km) Brightness Sun altitude
Rises 03:15:53 0° 178° (S) 2,952 6.6 -7.0°
Reaches altitude 10° 03:18:09 10° 175° (S) 2,042 5.9 -6.7°
Maximum altitude 03:22:37 62° 95° (E) 727 4.2 -6.1°
Drops below altitude 10° 03:27:05 10° 16° (NNE) 2,036 7.2 -5.5°
Sets 03:29:20 0° 13° (NNE) 2,943 8.0 -5.3°
